Simultaneous Nadir Overpasses (SNOs) Predictions

Prediction of SNOs between AQUA and NOAA-19 Satellite Orbit:

Table of predicted SNOs for the next 14.0 days since TLE Epoch: 2/23/2018
Index Date (AQUA) Time (AQUA) Lat,Lon (AQUA) SZA (AQUA ) Date (NOAA-19) Time (NOAA-19) Lat,Lon (NOAA-19) SZA (NOAA-19 ) Distance(km) Time Diff (sec)
1 02/25/2018 04:26:42 -80.85,-105.94 87.71 02/25/2018 04:25:28 -80.86,-105.79 87.68 2.82 74
2 02/25/2018 05:16:09 80.87, 61.51 92.32 02/25/2018 05:16:27 80.86, 61.65 92.29 2.40 18
3 02/27/2018 10:49:54 -80.86, 158.20 88.55 02/27/2018 10:50:07 -80.86, 158.37 88.57 3.14 13
4 03/01/2018 16:23:39 80.86,-105.27 90.61 03/01/2018 16:23:47 80.86,-105.37 90.62 1.72 8
5 03/03/2018 21:57:24 -80.85, -8.58 90.28 03/03/2018 21:57:26 -80.86, -8.76 90.25 3.33 2
6 03/06/2018 03:31:09 80.86, 87.84 88.88 03/06/2018 03:31:06 80.86, 87.83 88.88 0.63 3




NCC Satellite Simultaneous Nadir Overpasses (SNOs) Prediction Service
